Home   Weather   Delmenhorst   Past weeks

Flag for Germany Past Weather in Delmenhorst, Lower Saxony, Germany — Yesterday and Last 2 Weeks

Now
30 °F

Ice fog.


Feels Like: 25 °F
Forecast: 24 / 32 °F
Wind: 5 mph from South

Location: Bremen Airport

Current Time: Jan 23, 2017 at 9:59:20 am

Latest Report: Jan 23, 2017 at 9:20 am


Visibility: 1 mi

Pressure: 30.30 "Hg

Humidity: 93%

Dew Point: 28 °F

Location of DelmenhorstLocation

Past Weather in Delmenhorst — Graph

°F

Delmenhorst Temperature Yesterday

Maximum temperature yesterday: 32 °F (at 12:20 am)
Minimum temperature yesterday: 27 °F (at 8:20 am)
Average temperature yesterday: 29 °F

High & Low Weather Summary for the Past Weeks

 TemperatureHumidityPressure
High45 °F (Jan 11, 2:20 pm)100% (Jan 10, 2:20 am)30.74 "Hg (Jan 10, 2:20 am)
Low14 °F (Jan 17, 2:20 am)71% (Jan 12, 11:20 am)29.00 "Hg (Jan 13, 3:50 am)
Average31 °F91%30.15 "Hg
* Reported Jan 8 8:20 am — Jan 23 8:50 am, Delmenhorst, Weather by CustomWeather, © 2017

Note: Actual official high and low records may vary slightly from our data, if they occured in-between our weather recording intervals... More about our weather records

Advertising

Delmenhorst Weather History for the Previous 24 Hours

Scroll right to see more
 ConditionsComfort  
Time TempWeatherWind HumidityBarometerVisibility
8:50 am
Mon, Jan 23
30 °FIce fog.5 mph93%30.30 "Hg2 mi
8:20 am30 °FIce fog.2 mph93%30.30 "Hg3 mi
7:50 am30 °FIce fog.1 mph93%30.30 "Hg3 mi
7:20 am30 °FIce fog.No wind93%30.30 "Hg3 mi
6:50 am30 °FIce fog.1 mph93%30.30 "Hg3 mi
6:20 am30 °FIce fog.3 mph93%30.30 "Hg2 mi
5:50 am28 °FIce fog.8 mph93%30.30 "Hg2 mi
5:20 am28 °FIce fog.6 mph93%30.30 "Hg2 mi
4:50 am28 °FIce fog.7 mph93%30.30 "Hg2 mi
4:20 am28 °FIce fog.5 mph93%30.30 "Hg2 mi
3:50 am28 °FIce fog.5 mph93%30.30 "Hg2 mi
3:20 am28 °FPassing clouds.5 mph93%30.30 "Hg2 mi
2:50 am28 °FLow clouds.5 mph93%30.30 "Hg2 mi
2:20 am28 °FPassing clouds.5 mph93%30.30 "Hg2 mi
1:50 am28 °FLow clouds.5 mph93%30.30 "Hg1 mi
12:50 am28 °FLow clouds.3 mph93%30.30 "Hg2 mi
12:20 am28 °FIce fog.3 mph93%30.30 "Hg2 mi
11:50 pm
Sun, Jan 22
28 °FIce fog.2 mph93%30.33 "Hg2 mi
11:20 pm28 °FIce fog.2 mph93%30.30 "Hg2 mi
10:50 pm28 °FIce fog.3 mph93%30.33 "Hg2 mi
10:20 pm28 °FIce fog.3 mph93%30.33 "Hg2 mi
9:50 pm28 °FIce fog.1 mph93%30.33 "Hg2 mi
9:20 pm28 °FIce fog.2 mph93%30.33 "Hg2 mi
8:50 pm28 °FIce fog.1 mph93%30.30 "Hg2 mi
8:20 pm28 °FIce fog.5 mph93%30.33 "Hg2 mi
7:50 pm28 °FIce fog.5 mph93%30.33 "Hg2 mi
7:20 pm28 °FIce fog.3 mph93%30.33 "Hg2 mi
6:50 pm28 °FIce fog.3 mph100%30.33 "Hg2 mi
6:20 pm28 °FIce fog.2 mph100%30.30 "Hg2 mi
5:50 pm28 °FIce fog.5 mph100%30.33 "Hg2 mi
5:20 pm28 °FIce fog.5 mph100%30.33 "Hg1 mi
4:50 pm28 °FIce fog.5 mph100%30.30 "Hg1 mi
4:20 pm28 °FIce fog.3 mph100%30.33 "Hg1 mi
3:50 pm28 °FIce fog.3 mph100%30.33 "Hg1 mi
3:20 pm28 °FIce fog.3 mph100%30.33 "Hg1 mi
2:50 pm30 °FIce fog.6 mph93%30.33 "Hg1 mi
2:20 pm30 °FIce fog.6 mph93%30.33 "Hg1 mi
1:50 pm30 °FIce fog.5 mph93%30.33 "Hg1 mi
1:20 pm30 °FIce fog.6 mph93%30.33 "Hg1 mi
12:50 pm30 °FIce fog.6 mph93%30.33 "Hg1 mi
12:20 pm30 °FIce fog.6 mph93%30.36 "Hg1 mi
11:50 am30 °FIce fog.5 mph93%30.36 "Hg1 mi
11:20 am28 °FIce fog.7 mph100%30.36 "Hg1 mi
10:50 am28 °FIce fog.6 mph100%30.36 "Hg1 mi
10:20 am28 °FIce fog.5 mph100%30.39 "Hg1 mi
9:50 am28 °FIce fog.7 mph100%30.39 "Hg2 mi
9:20 am28 °FIce fog.No wind93%30.39 "Hg2 mi
Weather by CustomWeather, © 2017

See weather overviewHow to use our weather pages